"read_dt","SO2 (ppb)","flags","PMT voltage (V)","lamp voltage (V)","lamp intensity (Hz)","internal temp (C)","react chamber temp (C)","sample flow (l/min)","pres (mmHg)","SO2 bkg (ppb)","SO2 coefficient"
2017-04-03 00:00:00,1804E-3,5C000400,-0724,0835,12112,028.0,045.4,0.221,738.0,01.18,0.508
2017-04-03 00:01:00,1752E-3,5C000400,-0724,0836,12134,028.0,045.4,0.220,737.9,01.18,0.508
2017-04-03 00:02:00,1724E-3,5C000400,-0724,0836,12060,028.0,045.4,0.221,737.9,01.18,0.508
2017-04-03 00:03:00,1911E-3,5C000400,-0724,0835,12006,027.9,045.4,0.221,737.9,01.18,0.508
2017-04-03 00:04:00,1716E-3,5C000400,-0724,0836,12156,027.9,045.5,0.221,737.9,01.18,0.508
2017-04-03 00:05:00,1694E-3,5C000400,-0724,0835,11997,027.9,045.5,0.221,737.8,01.18,0.508
2017-04-03 00:06:00,1841E-3,5C000400,-0724,0835,12102,027.9,045.5,0.221,737.8,01.18,0.508
2017-04-03 00:07:00,1719E-3,5C000400,-0724,0835,12034,027.9,045.4,0.221,737.8,01.18,0.508
2017-04-03 00:08:00,1726E-3,5C000400,-0724,0835,12133,027.8,045.4,0.221,737.8,01.18,0.508
2017-04-03 00:09:00,1756E-3,5C000400,-0724,0835,12061,027.8,045.5,0.221,737.7,01.18,0.508
2017-04-03 00:10:00,1631E-3,5C000400,-0724,0835,12034,027.8,045.5,0.221,737.7,01.18,0.508
2017-04-03 00:11:00,1712E-3,5C000400,-0724,0835,12049,027.8,045.4,0.221,737.7,01.18,0.508
2017-04-03 00:12:00,1728E-3,5C000400,-0724,0835,12041,027.8,045.5,0.221,737.6,01.18,0.508
2017-04-03 00:13:00,1760E-3,5C000400,-0724,0835,12134,027.8,045.4,0.221,737.6,01.18,0.508
2017-04-03 00:14:00,1944E-3,5C000400,-0724,0835,12151,027.8,045.4,0.221,737.6,01.18,0.508
2017-04-03 00:15:00,1844E-3,5C000400,-0724,0835,12159,027.9,045.5,0.221,737.6,01.18,0.508
2017-04-03 00:16:00,1774E-3,5C000400,-0724,0835,12170,027.9,045.5,0.221,737.6,01.18,0.508
2017-04-03 00:17:00,1674E-3,5C000400,-0724,0835,12097,028.0,045.5,0.221,737.5,01.18,0.508
2017-04-03 00:18:00,1770E-3,5C000400,-0724,0836,12027,028.0,045.5,0.222,737.5,01.18,0.508
2017-04-03 00:19:00,1746E-3,5C000400,-0724,0835,12054,028.1,045.5,0.222,737.4,01.18,0.508
2017-04-03 00:20:00,1750E-3,5C000400,-0724,0836,12063,028.2,045.5,0.222,737.4,01.18,0.508
2017-04-03 00:21:00,1868E-3,5C000400,-0724,0835,12048,028.2,045.5,0.221,737.5,01.18,0.508
2017-04-03 00:22:00,1722E-3,5C000400,-0724,0835,12067,028.2,045.5,0.221,737.5,01.18,0.508
2017-04-03 00:23:00,1733E-3,5C000400,-0724,0835,12142,028.2,045.5,0.221,737.5,01.18,0.508
2017-04-03 00:24:00,1718E-3,5C000400,-0724,0836,12141,028.2,045.5,0.220,737.5,01.18,0.508
2017-04-03 00:25:00,1865E-3,5C000400,-0724,0835,12089,028.2,045.5,0.221,737.4,01.18,0.508
2017-04-03 00:26:00,1677E-3,5C000400,-0724,0835,12117,028.2,045.5,0.221,737.5,01.18,0.508
2017-04-03 00:27:00,1819E-3,5C000400,-0724,0835,12100,028.1,045.4,0.220,737.5,01.18,0.508
2017-04-03 00:28:00,1906E-3,5C000400,-0724,0836,12039,028.1,045.5,0.221,737.5,01.18,0.508
2017-04-03 00:29:00,1783E-3,5C000400,-0724,0835,12050,028.0,045.5,0.220,737.5,01.18,0.508
2017-04-03 00:30:00,1811E-3,5C000400,-0724,0836,12066,028.0,045.5,0.221,737.5,01.18,0.508
2017-04-03 00:31:00,1657E-3,5C000400,-0724,0836,12205,028.0,045.5,0.220,737.4,01.18,0.508
2017-04-03 00:32:00,1658E-3,5C000400,-0724,0835,11951,028.0,045.5,0.221,737.3,01.18,0.508
2017-04-03 00:33:00,1740E-3,5C000400,-0724,0836,12081,027.9,045.5,0.220,737.3,01.18,0.508
2017-04-03 00:34:00,1923E-3,5C000400,-0724,0835,12196,027.9,045.5,0.221,737.3,01.18,0.508
2017-04-03 00:35:00,1794E-3,5C000400,-0724,0835,12207,027.9,045.5,0.221,737.3,01.18,0.508
2017-04-03 00:36:00,1725E-3,5C000400,-0724,0835,12138,027.9,045.4,0.221,737.2,01.18,0.508
2017-04-03 00:37:00,1596E-3,5C000400,-0724,0836,12093,027.9,045.5,0.221,737.2,01.18,0.508
2017-04-03 00:38:00,1843E-3,5C000400,-0724,0835,12085,027.9,045.5,0.221,737.2,01.18,0.508
2017-04-03 00:39:00,1832E-3,5C000400,-0724,0835,12121,027.9,045.5,0.221,737.2,01.18,0.508
2017-04-03 00:40:00,1720E-3,5C000400,-0724,0835,12174,027.9,045.5,0.221,737.2,01.18,0.508
2017-04-03 00:41:00,1658E-3,5C000400,-0724,0835,12120,028.0,045.4,0.221,737.2,01.18,0.508
2017-04-03 00:42:00,1718E-3,5C000400,-0724,0835,12211,028.0,045.5,0.221,737.2,01.18,0.508
2017-04-03 00:43:00,1641E-3,5C000400,-0724,0835,12051,028.0,045.4,0.221,737.2,01.18,0.508
2017-04-03 00:44:00,1765E-3,5C000400,-0724,0835,12097,028.0,045.5,0.221,737.1,01.18,0.508
2017-04-03 00:45:00,1672E-3,5C000400,-0724,0835,12087,028.0,045.5,0.221,737.1,01.18,0.508
2017-04-03 00:46:00,1855E-3,5C000400,-0724,0836,12135,028.0,045.5,0.221,737.1,01.18,0.508
2017-04-03 00:47:00,1721E-3,5C000400,-0724,0835,12060,028.0,045.5,0.221,737.0,01.18,0.508
2017-04-03 00:48:00,1759E-3,5C000400,-0724,0834,12098,028.0,045.5,0.221,737.0,01.18,0.508
2017-04-03 00:49:00,1733E-3,5C000400,-0724,0835,12089,028.0,045.5,0.221,737.0,01.18,0.508
2017-04-03 00:50:00,1708E-3,5C000400,-0724,0834,12197,027.9,045.4,0.221,737.1,01.18,0.508
2017-04-03 00:51:00,1682E-3,5C000400,-0724,0836,12201,027.9,045.5,0.221,737.0,01.18,0.508
2017-04-03 00:52:00,1826E-3,5C000400,-0724,0836,12146,027.9,045.5,0.221,737.0,01.18,0.508
2017-04-03 00:53:00,1752E-3,5C000400,-0724,0835,12069,027.9,045.4,0.221,737.0,01.18,0.508
2017-04-03 00:54:00,1726E-3,5C000400,-0724,0835,12075,027.9,045.5,0.221,737.0,01.18,0.508
2017-04-03 00:55:00,1714E-3,5C000400,-0724,0836,12118,027.8,045.5,0.221,736.9,01.18,0.508
2017-04-03 00:56:00,1858E-3,5C000400,-0724,0835,12131,027.9,045.5,0.221,736.9,01.18,0.508
2017-04-03 00:57:00,1733E-3,5C000400,-0724,0834,12125,027.8,045.5,0.221,736.9,01.18,0.508
2017-04-03 00:58:00,1694E-3,5C000400,-0724,0835,12144,027.8,045.4,0.221,736.9,01.18,0.508
2017-04-03 00:59:00,1777E-3,5C000400,-0724,0835,11965,027.8,045.5,0.221,736.9,01.18,0.508
2017-04-03 01:00:00,1790E-3,5C000400,-0724,0835,12109,027.8,045.5,0.221,736.8,01.18,0.508
2017-04-03 01:01:00,1739E-3,5C000400,-0724,0835,12030,027.8,045.5,0.221,736.9,01.18,0.508
2017-04-03 01:02:00,1811E-3,5C000400,-0724,0836,12117,027.8,045.4,0.221,736.7,01.18,0.508
2017-04-03 01:03:00,1778E-3,5C000400,-0724,0834,12045,027.8,045.5,0.221,736.8,01.18,0.508
2017-04-03 01:04:00,1753E-3,5C000400,-0724,0835,12065,027.8,045.5,0.221,736.7,01.18,0.508
2017-04-03 01:05:00,1567E-3,5C000400,-0724,0835,12081,027.9,045.5,0.221,736.7,01.18,0.508
2017-04-03 01:06:00,1711E-3,5C000400,-0724,0835,12087,027.9,045.4,0.221,736.7,01.18,0.508
2017-04-03 01:07:00,1751E-3,5C000400,-0724,0835,12104,027.8,045.5,0.221,736.7,01.18,0.508
2017-04-03 01:08:00,1739E-3,5C000400,-0724,0835,12052,027.8,045.5,0.221,736.7,01.18,0.508
2017-04-03 01:09:00,1682E-3,5C000400,-0724,0834,12099,027.8,045.5,0.221,736.7,01.18,0.508
2017-04-03 01:10:00,1836E-3,5C000400,-0724,0835,12122,027.8,045.5,0.221,736.5,01.18,0.508
2017-04-03 01:11:00,1770E-3,5C000400,-0724,0835,12046,027.8,045.4,0.221,736.7,01.18,0.508
2017-04-03 01:12:00,1645E-3,5C000400,-0724,0836,12177,027.8,045.4,0.221,736.7,01.18,0.508
2017-04-03 01:13:00,1764E-3,5C000400,-0724,0835,12054,027.8,045.5,0.221,736.6,01.18,0.508
2017-04-03 01:14:00,1547E-3,5C000400,-0724,0835,12208,027.8,045.4,0.221,736.6,01.18,0.508
2017-04-03 01:15:00,1724E-3,5C000400,-0724,0835,12044,027.8,045.4,0.221,736.6,01.18,0.508
2017-04-03 01:16:00,1687E-3,5C000400,-0724,0835,12000,027.8,045.4,0.221,736.6,01.18,0.508
2017-04-03 01:17:00,1696E-3,5C000400,-0724,0835,12103,027.8,045.5,0.221,736.6,01.18,0.508
2017-04-03 01:18:00,1711E-3,5C000400,-0724,0834,12142,027.8,045.5,0.222,736.6,01.18,0.508
2017-04-03 01:19:00,1637E-3,5C000400,-0724,0834,11988,027.8,045.5,0.222,736.6,01.18,0.508
2017-04-03 01:20:00,1697E-3,5C000400,-0724,0836,12029,027.9,045.4,0.222,736.6,01.18,0.508
2017-04-03 01:21:00,1632E-3,5C000400,-0724,0835,12041,027.8,045.4,0.221,736.7,01.18,0.508
2017-04-03 01:22:00,1698E-3,5C000400,-0724,0834,12038,027.8,045.5,0.221,736.7,01.18,0.508
2017-04-03 01:23:00,1570E-3,5C000400,-0724,0835,12035,027.8,045.5,0.221,736.7,01.18,0.508
2017-04-03 01:24:00,1687E-3,5C000400,-0724,0834,12153,027.8,045.5,0.221,736.6,01.18,0.508
2017-04-03 01:25:00,1649E-3,5C000400,-0724,0835,11952,027.9,045.4,0.221,736.6,01.18,0.508
2017-04-03 01:26:00,1802E-3,5C000400,-0724,0834,11936,027.9,045.4,0.221,736.6,01.18,0.508
2017-04-03 01:27:00,1778E-3,5C000400,-0724,0835,12078,027.9,045.4,0.221,736.6,01.18,0.508
2017-04-03 01:28:00,1627E-3,5C000400,-0724,0835,12208,027.8,045.4,0.221,736.6,01.18,0.508
2017-04-03 01:29:00,1827E-3,5C000400,-0724,0835,12027,027.8,045.4,0.221,736.6,01.18,0.508
2017-04-03 01:30:00,1767E-3,5C000400,-0724,0836,12135,027.8,045.4,0.221,736.6,01.18,0.508
2017-04-03 01:31:00,1764E-3,5C000400,-0724,0835,12021,027.8,045.4,0.221,736.6,01.18,0.508
2017-04-03 01:32:00,1683E-3,5C000400,-0724,0835,11922,027.8,045.5,0.221,736.6,01.18,0.508
2017-04-03 01:33:00,1610E-3,5C000400,-0724,0835,12065,027.8,045.4,0.221,736.6,01.18,0.508
2017-04-03 01:34:00,1665E-3,5C000400,-0724,0835,11968,027.8,045.4,0.221,736.5,01.18,0.508
2017-04-03 01:35:00,1744E-3,5C000400,-0724,0835,11986,027.8,045.4,0.221,736.6,01.18,0.508
2017-04-03 01:36:00,1646E-3,5C000400,-0724,0835,12125,027.8,045.5,0.221,736.6,01.18,0.508
2017-04-03 01:37:00,1663E-3,5C000400,-0724,0835,12066,027.8,045.5,0.221,736.6,01.18,0.508
2017-04-03 01:38:00,1726E-3,5C000400,-0724,0835,12057,027.8,045.4,0.221,736.6,01.18,0.508
2017-04-03 01:39:00,1757E-3,5C000400,-0724,0835,12003,027.8,045.5,0.221,736.5,01.18,0.508
2017-04-03 01:40:00,1710E-3,5C000400,-0724,0835,12134,027.8,045.5,0.221,736.5,01.18,0.508
2017-04-03 01:41:00,1696E-3,5C000400,-0724,0835,12007,027.8,045.4,0.221,736.5,01.18,0.508
2017-04-03 01:42:00,1728E-3,5C000400,-0724,0836,11968,027.8,045.4,0.221,736.5,01.18,0.508
2017-04-03 01:43:00,1873E-3,5C000400,-0724,0835,12090,027.8,045.5,0.221,736.5,01.18,0.508
2017-04-03 01:44:00,1645E-3,5C000400,-0724,0834,11828,027.8,045.5,0.221,736.5,01.18,0.508
2017-04-03 01:45:00,1781E-3,5C000400,-0724,0835,12012,027.8,045.5,0.221,736.5,01.18,0.508
2017-04-03 01:46:00,1738E-3,5C000400,-0724,0835,12164,027.8,045.4,0.221,736.5,01.18,0.508
2017-04-03 01:47:00,1694E-3,5C000400,-0724,0835,12162,027.8,045.5,0.221,736.4,01.18,0.508
2017-04-03 01:48:00,1700E-3,5C000400,-0724,0834,12136,027.8,045.5,0.221,736.4,01.18,0.508
2017-04-03 01:49:00,1752E-3,5C000400,-0724,0835,11996,027.8,045.5,0.221,736.5,01.18,0.508
2017-04-03 01:50:00,1802E-3,5C000400,-0724,0835,12142,027.8,045.5,0.221,736.5,01.18,0.508
2017-04-03 01:51:00,1729E-3,5C000400,-0724,0835,12157,027.8,045.5,0.221,736.5,01.18,0.508
2017-04-03 01:52:00,1710E-3,5C000400,-0724,0836,12096,027.8,045.5,0.221,736.4,01.18,0.508
2017-04-03 01:53:00,1791E-3,5C000400,-0724,0835,11916,027.8,045.4,0.221,736.4,01.18,0.508
2017-04-03 01:54:00,1713E-3,5C000400,-0724,0835,11929,027.8,045.4,0.221,736.4,01.18,0.508
2017-04-03 01:55:00,1721E-3,5C000400,-0724,0835,12195,027.8,045.4,0.221,736.3,01.18,0.508
2017-04-03 01:56:00,1747E-3,5C000400,-0724,0835,12091,027.8,045.4,0.221,736.3,01.18,0.508
2017-04-03 01:57:00,1686E-3,5C000400,-0724,0835,12069,027.8,045.5,0.221,736.4,01.18,0.508
2017-04-03 01:58:00,1720E-3,5C000400,-0724,0835,11941,027.8,045.5,0.221,736.5,01.18,0.508
2017-04-03 01:59:00,1706E-3,5C000400,-0724,0835,12122,027.8,045.5,0.221,736.4,01.18,0.508
2017-04-03 02:00:00,1896E-3,5C000400,-0724,0835,12218,027.8,045.4,0.221,736.4,01.18,0.508
2017-04-03 02:01:00,1630E-3,5C000400,-0724,0835,12127,027.8,045.5,0.221,736.4,01.18,0.508
2017-04-03 02:02:00,1798E-3,5C000400,-0724,0835,11966,027.8,045.5,0.221,736.4,01.18,0.508
2017-04-03 02:03:00,1681E-3,5C000400,-0724,0836,12106,027.8,045.4,0.221,736.4,01.18,0.508
2017-04-03 02:04:00,1746E-3,5C000400,-0724,0835,11967,027.9,045.4,0.221,736.3,01.18,0.508
2017-04-03 02:05:00,1762E-3,5C000400,-0724,0834,12018,027.9,045.4,0.221,736.4,01.18,0.508
2017-04-03 02:06:00,1793E-3,5C000400,-0724,0835,12065,027.9,045.5,0.221,736.4,01.18,0.508
2017-04-03 02:07:00,1733E-3,5C000400,-0724,0835,12083,027.9,045.5,0.221,736.4,01.18,0.508
2017-04-03 02:08:00,1730E-3,5C000400,-0724,0835,12125,027.9,045.5,0.221,736.4,01.18,0.508
2017-04-03 02:09:00,1786E-3,5C000400,-0724,0835,12107,027.9,045.4,0.221,736.4,01.18,0.508
2017-04-03 02:10:00,1774E-3,5C000400,-0724,0835,12216,027.9,045.4,0.221,736.4,01.18,0.508
2017-04-03 02:11:00,1666E-3,5C000400,-0724,0836,12011,027.9,045.5,0.221,736.4,01.18,0.508
2017-04-03 02:12:00,1600E-3,5C000400,-0724,0835,12056,027.9,045.4,0.221,736.4,01.18,0.508
2017-04-03 02:13:00,1795E-3,5C000400,-0724,0835,12093,027.9,045.4,0.221,736.4,01.18,0.508
2017-04-03 02:14:00,1807E-3,5C000400,-0724,0835,12067,027.9,045.5,0.221,736.4,01.18,0.508
2017-04-03 02:15:00,1844E-3,5C000400,-0724,0836,12164,027.9,045.5,0.221,736.4,01.18,0.508
2017-04-03 02:16:00,1752E-3,5C000400,-0724,0834,12143,027.9,045.5,0.221,736.4,01.18,0.508
2017-04-03 02:17:00,1765E-3,5C000400,-0724,0834,12106,027.9,045.5,0.221,736.4,01.18,0.508
2017-04-03 02:18:00,1766E-3,5C000400,-0724,0836,12149,027.9,045.4,0.222,736.4,01.18,0.508
2017-04-03 02:19:00,1720E-3,5C000400,-0724,0835,12168,027.9,045.4,0.221,736.3,01.18,0.508
2017-04-03 02:20:00,1680E-3,5C000400,-0724,0835,12053,027.9,045.5,0.221,736.3,01.18,0.508
2017-04-03 02:21:00,1670E-3,5C000400,-0724,0835,12182,027.9,045.4,0.221,736.4,01.18,0.508
2017-04-03 02:22:00,1757E-3,5C000400,-0724,0835,12042,027.9,045.4,0.221,736.4,01.18,0.508
2017-04-03 02:23:00,1698E-3,5C000400,-0724,0835,12015,027.8,045.4,0.221,736.4,01.18,0.508
2017-04-03 02:24:00,1835E-3,5C000400,-0724,0834,12077,027.9,045.4,0.221,736.4,01.18,0.508
2017-04-03 02:25:00,1683E-3,5C000400,-0724,0834,12121,027.9,045.5,0.221,736.4,01.18,0.508
2017-04-03 02:26:00,1854E-3,5C000400,-0724,0835,12028,027.9,045.5,0.221,736.4,01.18,0.508
2017-04-03 02:27:00,1798E-3,5C000400,-0724,0835,12124,027.9,045.5,0.221,736.4,01.18,0.508
2017-04-03 02:28:00,1734E-3,5C000400,-0724,0834,12023,027.9,045.5,0.221,736.4,01.18,0.508
2017-04-03 02:29:00,1757E-3,5C000400,-0724,0835,12077,027.9,045.5,0.221,736.4,01.18,0.508
2017-04-03 02:30:00,1652E-3,5C000400,-0724,0835,12113,027.9,045.5,0.221,736.4,01.18,0.508
2017-04-03 02:31:00,1691E-3,5C000400,-0724,0835,12065,027.9,045.4,0.221,736.4,01.18,0.508
2017-04-03 02:32:00,1660E-3,5C000400,-0724,0834,12104,027.9,045.4,0.221,736.4,01.18,0.508
2017-04-03 02:33:00,1714E-3,5C000400,-0724,0835,12157,027.9,045.4,0.221,736.4,01.18,0.508
2017-04-03 02:34:00,1725E-3,5C000400,-0724,0835,12079,027.9,045.5,0.221,736.4,01.18,0.508
2017-04-03 02:35:00,1781E-3,5C000400,-0724,0835,12155,027.9,045.5,0.221,736.4,01.18,0.508
2017-04-03 02:36:00,1665E-3,5C000400,-0724,0835,12110,027.8,045.4,0.221,736.4,01.18,0.508
2017-04-03 02:37:00,1601E-3,5C000400,-0724,0835,12203,027.9,045.5,0.221,736.3,01.18,0.508
2017-04-03 02:38:00,1605E-3,5C000400,-0724,0835,12122,027.9,045.5,0.221,736.3,01.18,0.508
2017-04-03 02:39:00,1771E-3,5C000400,-0724,0835,12142,027.9,045.5,0.221,736.4,01.18,0.508
2017-04-03 02:40:00,1785E-3,5C000400,-0724,0835,12126,027.9,045.5,0.221,736.4,01.18,0.508
2017-04-03 02:41:00,1610E-3,5C000400,-0724,0835,12128,027.9,045.5,0.221,736.4,01.18,0.508
2017-04-03 02:42:00,1762E-3,5C000400,-0724,0835,12068,027.9,045.5,0.221,736.4,01.18,0.508
2017-04-03 02:43:00,1806E-3,5C000400,-0724,0835,12154,027.9,045.4,0.221,736.4,01.18,0.508
2017-04-03 02:44:00,1758E-3,5C000400,-0724,0836,12008,027.9,045.4,0.221,736.4,01.18,0.508
2017-04-03 02:45:00,1709E-3,5C000400,-0724,0835,11938,027.9,045.4,0.221,736.4,01.18,0.508
2017-04-03 02:46:00,1639E-3,5C000400,-0724,0835,12134,027.9,045.5,0.221,736.4,01.18,0.508
2017-04-03 02:47:00,1727E-3,5C000400,-0724,0835,12094,027.9,045.4,0.221,736.4,01.18,0.508
2017-04-03 02:48:00,1809E-3,5C000400,-0724,0836,12178,027.9,045.4,0.221,736.4,01.18,0.508
2017-04-03 02:49:00,1684E-3,5C000400,-0724,0835,12094,027.9,045.4,0.221,736.4,01.18,0.508
2017-04-03 02:50:00,1773E-3,5C000400,-0724,0836,12133,027.9,045.5,0.221,736.3,01.18,0.508
2017-04-03 02:51:00,1680E-3,5C000400,-0724,0835,12161,027.9,045.5,0.221,736.4,01.18,0.508
2017-04-03 02:52:00,1768E-3,5C000400,-0724,0835,11977,027.9,045.5,0.221,736.4,01.18,0.508
2017-04-03 02:53:00,1791E-3,5C000400,-0724,0835,12082,027.9,045.4,0.221,736.4,01.18,0.508
2017-04-03 02:54:00,1667E-3,5C000400,-0724,0835,12039,027.9,045.5,0.221,736.4,01.18,0.508
2017-04-03 02:55:00,1651E-3,5C000400,-0724,0834,12043,027.9,045.4,0.221,736.4,01.18,0.508
2017-04-03 02:56:00,1739E-3,5C000400,-0724,0836,12123,027.9,045.4,0.221,736.4,01.18,0.508
2017-04-03 02:57:00,1717E-3,5C000400,-0724,0836,12061,027.9,045.5,0.221,736.3,01.18,0.508
2017-04-03 02:58:00,1705E-3,5C000400,-0724,0835,12255,027.9,045.4,0.221,736.3,01.18,0.508
2017-04-03 02:59:00,1707E-3,5C000400,-0724,0836,12081,027.9,045.4,0.221,736.3,01.18,0.508
2017-04-03 03:00:00,1631E-3,5C000400,-0724,0836,12146,027.9,045.4,0.221,736.4,01.18,0.508
2017-04-03 03:01:00,1749E-3,5C000400,-0724,0835,11945,027.9,045.5,0.221,736.4,01.18,0.508
2017-04-03 03:02:00,1759E-3,5C000400,-0724,0835,12186,027.9,045.4,0.221,736.4,01.18,0.508
2017-04-03 03:03:00,1658E-3,5C000400,-0724,0834,12051,027.9,045.4,0.221,736.4,01.18,0.508
2017-04-03 03:04:00,1722E-3,5C000400,-0724,0835,12060,027.9,045.5,0.221,736.4,01.18,0.508
2017-04-03 03:05:00,1729E-3,5C000400,-0724,0835,12017,027.9,045.5,0.221,736.4,01.18,0.508
2017-04-03 03:06:00,1762E-3,5C000400,-0724,0835,11995,027.9,045.5,0.221,736.4,01.18,0.508
2017-04-03 03:07:00,1581E-3,5C000400,-0724,0836,12046,027.9,045.5,0.221,736.4,01.18,0.508
2017-04-03 03:08:00,1654E-3,5C000400,-0724,0835,12137,027.9,045.4,0.221,736.4,01.18,0.508
2017-04-03 03:09:00,1745E-3,5C000400,-0724,0835,12156,027.9,045.5,0.221,736.4,01.18,0.508
2017-04-03 03:10:00,1684E-3,5C000400,-0724,0836,11981,027.9,045.5,0.221,736.4,01.18,0.508
2017-04-03 03:11:00,1545E-3,5C000400,-0724,0836,12056,027.9,045.5,0.221,736.3,01.18,0.508
2017-04-03 03:12:00,1730E-3,5C000400,-0724,0835,12144,027.9,045.5,0.221,736.4,01.18,0.508
2017-04-03 03:13:00,1668E-3,5C000400,-0724,0834,12085,027.9,045.5,0.221,736.3,01.18,0.508
2017-04-03 03:14:00,1616E-3,5C000400,-0724,0834,11910,027.9,045.5,0.221,736.3,01.18,0.508
2017-04-03 03:15:00,1555E-3,5C000400,-0724,0835,12094,027.9,045.5,0.221,736.3,01.18,0.508
2017-04-03 03:16:00,1724E-3,5C000400,-0724,0835,12036,027.9,045.4,0.221,736.3,01.18,0.508
2017-04-03 03:17:00,1789E-3,5C000400,-0724,0835,11931,027.9,045.4,0.221,736.3,01.18,0.508
2017-04-03 03:18:00,1767E-3,5C000400,-0724,0836,12167,027.9,045.5,0.221,736.3,01.18,0.508
2017-04-03 03:19:00,1730E-3,5C000400,-0724,0835,12142,027.9,045.5,0.222,736.3,01.18,0.508
2017-04-03 03:20:00,1780E-3,5C000400,-0724,0834,12031,027.9,045.5,0.221,736.3,01.18,0.508
2017-04-03 03:21:00,1724E-3,5C000400,-0724,0834,12236,027.9,045.4,0.221,736.3,01.18,0.508
2017-04-03 03:22:00,1666E-3,5C000400,-0724,0835,12078,027.9,045.5,0.221,736.3,01.18,0.508
2017-04-03 03:23:00,1793E-3,5C000400,-0724,0835,12099,027.9,045.4,0.221,736.3,01.18,0.508
2017-04-03 03:24:00,1708E-3,5C000400,-0724,0835,12047,027.9,045.5,0.221,736.3,01.18,0.508
2017-04-03 03:25:00,1815E-3,5C000400,-0724,0835,12045,027.9,045.4,0.221,736.3,01.18,0.508
2017-04-03 03:26:00,1626E-3,5C000400,-0724,0835,12137,027.9,045.5,0.221,736.3,01.18,0.508
2017-04-03 03:27:00,1713E-3,5C000400,-0724,0835,12199,027.9,045.5,0.221,736.3,01.18,0.508
2017-04-03 03:28:00,1850E-3,5C000400,-0724,0834,12016,027.9,045.5,0.221,736.3,01.18,0.508
2017-04-03 03:29:00,1600E-3,5C000400,-0724,0835,12055,027.9,045.5,0.221,736.4,01.18,0.508
2017-04-03 03:30:00,1665E-3,5C000400,-0724,0835,12146,027.9,045.5,0.221,736.3,01.18,0.508
2017-04-03 03:31:00,1742E-3,5C000400,-0724,0835,12188,027.9,045.5,0.221,736.3,01.18,0.508
2017-04-03 03:32:00,1684E-3,5C000400,-0724,0835,12096,027.9,045.5,0.221,736.3,01.18,0.508
2017-04-03 03:33:00,1691E-3,5C000400,-0724,0835,12072,027.9,045.4,0.221,736.3,01.18,0.508
2017-04-03 03:34:00,1731E-3,5C000400,-0724,0835,11991,027.9,045.5,0.221,736.3,01.18,0.508
2017-04-03 03:35:00,1807E-3,5C000400,-0724,0835,12151,027.9,045.5,0.221,736.3,01.18,0.508
2017-04-03 03:36:00,1768E-3,5C000400,-0724,0836,12139,027.9,045.5,0.221,736.3,01.18,0.508
2017-04-03 03:37:00,1680E-3,5C000400,-0724,0836,12262,027.9,045.5,0.221,736.3,01.18,0.508
2017-04-03 03:38:00,1700E-3,5C000400,-0724,0835,12048,027.9,045.4,0.221,736.3,01.18,0.508
2017-04-03 03:39:00,1769E-3,5C000400,-0724,0835,12205,027.9,045.5,0.221,736.3,01.18,0.508
2017-04-03 03:40:00,1737E-3,5C000400,-0724,0835,12005,027.9,045.5,0.221,736.3,01.18,0.508
2017-04-03 03:41:00,1832E-3,5C000400,-0724,0834,12065,027.9,045.4,0.221,736.3,01.18,0.508
2017-04-03 03:42:00,1703E-3,5C000400,-0724,0836,12043,027.9,045.4,0.221,736.3,01.18,0.508
2017-04-03 03:43:00,1726E-3,5C000400,-0724,0836,12041,027.9,045.5,0.221,736.3,01.18,0.508
2017-04-03 03:44:00,1654E-3,5C000400,-0724,0835,12087,027.9,045.5,0.221,736.3,01.18,0.508
2017-04-03 03:45:00,1719E-3,5C000400,-0724,0835,12105,027.9,045.5,0.221,736.3,01.18,0.508
2017-04-03 03:46:00,1778E-3,5C000400,-0724,0835,12166,027.9,045.5,0.221,736.3,01.18,0.508
2017-04-03 03:47:00,1752E-3,5C000400,-0724,0835,12019,027.9,045.5,0.221,736.3,01.18,0.508
2017-04-03 03:48:00,1815E-3,5C000400,-0724,0835,12093,028.0,045.4,0.221,736.3,01.18,0.508
2017-04-03 03:49:00,1787E-3,5C000400,-0724,0834,12025,027.9,045.4,0.221,736.2,01.18,0.508
2017-04-03 03:50:00,1844E-3,5C000400,-0724,0835,12166,027.9,045.4,0.221,736.2,01.18,0.508
2017-04-03 03:51:00,1587E-3,5C000400,-0724,0835,12089,027.9,045.5,0.221,736.2,01.18,0.508
2017-04-03 03:52:00,1804E-3,5C000400,-0724,0835,12138,028.0,045.5,0.221,736.3,01.18,0.508
2017-04-03 03:53:00,1734E-3,5C000400,-0724,0835,12160,027.9,045.4,0.221,736.3,01.18,0.508
2017-04-03 03:54:00,1674E-3,5C000400,-0724,0835,11975,028.0,045.5,0.221,736.3,01.18,0.508
2017-04-03 03:55:00,1747E-3,5C000400,-0724,0834,12141,028.0,045.5,0.221,736.3,01.18,0.508
2017-04-03 03:56:00,1693E-3,5C000400,-0724,0834,11994,028.0,045.5,0.221,736.3,01.18,0.508
2017-04-03 03:57:00,1778E-3,5C000400,-0724,0834,11990,028.0,045.4,0.221,736.3,01.18,0.508
2017-04-03 03:58:00,1724E-3,5C000400,-0724,0835,12132,028.0,045.5,0.221,736.2,01.18,0.508
2017-04-03 03:59:00,1727E-3,5C000400,-0724,0835,12127,028.0,045.5,0.221,736.2,01.18,0.508
2017-04-03 04:00:00,1781E-3,5C000400,-0724,0835,12108,028.0,045.5,0.221,736.2,01.18,0.508
2017-04-03 04:01:00,1821E-3,5C000400,-0724,0835,12133,028.0,045.5,0.221,736.2,01.18,0.508
2017-04-03 04:02:00,1715E-3,5C000400,-0724,0835,12046,028.0,045.5,0.221,736.2,01.18,0.508
2017-04-03 04:03:00,1773E-3,5C000400,-0724,0835,12226,028.0,045.5,0.221,736.3,01.18,0.508
2017-04-03 04:04:00,1653E-3,5C000400,-0724,0835,12063,028.0,045.5,0.221,736.3,01.18,0.508
2017-04-03 04:05:00,1904E-3,5C000400,-0724,0835,12165,028.0,045.4,0.221,736.3,01.18,0.508
2017-04-03 04:06:00,1739E-3,5C000400,-0724,0835,11962,028.0,045.4,0.221,736.3,01.18,0.508
2017-04-03 04:07:00,1573E-3,5C000400,-0724,0835,12042,028.0,045.5,0.221,736.3,01.18,0.508
2017-04-03 04:08:00,1726E-3,5C000400,-0724,0835,12029,028.0,045.5,0.221,736.3,01.18,0.508
2017-04-03 04:09:00,1890E-3,5C000400,-0724,0835,12118,028.0,045.5,0.221,736.3,01.18,0.508
2017-04-03 04:10:00,1805E-3,5C000400,-0724,0835,12112,028.0,045.5,0.221,736.3,01.18,0.508
2017-04-03 04:11:00,1690E-3,5C000400,-0724,0834,12096,028.0,045.4,0.221,736.4,01.18,0.508
2017-04-03 04:12:00,1631E-3,5C000400,-0724,0834,12166,028.0,045.5,0.221,736.3,01.18,0.508
2017-04-03 04:13:00,1665E-3,5C000400,-0724,0835,12047,028.0,045.5,0.221,736.3,01.18,0.508
2017-04-03 04:14:00,1807E-3,5C000400,-0724,0835,12113,028.0,045.4,0.221,736.4,01.18,0.508
2017-04-03 04:15:00,1771E-3,5C000400,-0724,0835,12138,028.0,045.5,0.221,736.4,01.18,0.508
2017-04-03 04:16:00,1787E-3,5C000400,-0724,0835,12125,028.0,045.5,0.221,736.3,01.18,0.508
2017-04-03 04:17:00,1724E-3,5C000400,-0724,0835,12103,028.0,045.4,0.221,736.3,01.18,0.508
2017-04-03 04:18:00,1761E-3,5C000400,-0724,0836,11950,028.0,045.4,0.221,736.3,01.18,0.508
2017-04-03 04:19:00,1729E-3,5C000400,-0724,0835,12116,028.0,045.5,0.221,736.3,01.18,0.508
2017-04-03 04:20:00,1719E-3,5C000400,-0724,0834,12097,028.0,045.5,0.221,736.4,01.18,0.508